User: anonymous   Login
Location: Unspecified
(0.0000°N, 0.0000°E)
Time: 15:50:52
(UTC+00:00)
Language:

Tandem-X - Orbit

View from above orbital plane
View from above orbital plane
View from above satellite
View from above satellite

Ground track
Ground track

The orbit data is extracted from the following two-line orbital elements,

1 36605U 10030A   21175.19734480 -.00001068  00000-0 -47709-4 0  9994
2 36605  97.4447 182.9099 0001907  89.1630  41.3110 15.19141140610474
Epoch (UTC): 24 June 2021 04:44:10
Eccentricity: 0.0001907
inclination: 97.4447°
perigee height: 507 km
apogee height: 510 km
right ascension of ascending node: 182.9099°
argument of perigee: 89.1630°
revolutions per day: 15.19141140
mean anomaly at epoch: 41.3110°
orbit number at epoch: 61047

The dashed part of the orbit path shows where the satellite is in the earth's shadow,  

DLR